[[{"header":{"parameterUnit":"m.s-1","parameterCategory":1,"la1":30.2991,"la2":30.254,"lo1":-89.0895,"lo2":-89.0444,"dy":0.0017,"dx":0.0017,"nx":28,"ny":28,"refTime":"2025-04-04T03:00:00:Z","depth":0,"parameterNumber":2,"parameterNumberName":"U-component_of_WINDS"},"data":[0,0,0,0,0,0,0,0,0,0,0,0,0,0,0,0,0,0,0,0,0,0,0,0,0,0,0,0,0,0,0,0,0,0,0,0,0,0,0,0,0,0,0,0,0,0,0,0,0,0,0,0,0,0,0,0,0,0,-5.2501,-5.2502,0,-5.2581,-5.2582,-5.2583,-5.2565,-5.2564,-5.2562,-5.2561,-5.2641,-5.2644,-5.2647,0,0,0,0,0,0,0,0,0,0,0,0,0,-5.233,-5.2333,-5.2501,-5.2502,-5.2503,-5.2581,-5.2582,-5.2583,-5.2565,-5.2564,-5.2562,-5.256,-5.2639,-5.2644,-5.2648,0,0,0,0,0,0,0,0,0,0,0,0,0,-5.2407,-5.2334,-5.2501,-5.2503,-5.2504,-5.2581,-5.2582,-5.2584,-5.2566,-5.2564,-5.2561,-5.2559,-5.2638,-5.2643,-5.2648,-5.2726,0,0,-5.2665,-5.2667,0,0,0,0,0,0,0,0,-5.2402,-5.2413,-5.2502,-5.2503,-5.2505,-5.2561,-5.2551,-5.2631,-5.2566,-5.2542,-5.2561,-5.2558,-5.2616,-5.2623,-5.2643,-5.273,-5.2733,-5.2665,-5.2668,-5.267,-5.2672,0,0,0,0,0,0,0,-5.2397,-5.2409,-5.2533,-5.2503,-5.2505,-5.25,-5.2509,-5.2566,-5.2591,-5.2544,-5.2543,-5.2553,-5.2616,-5.2638,-5.2644,-5.2735,-5.2665,-5.267,-5.2673,-5.2675,-5.289,-5.2892,0,0,0,0,0,0,-5.2391,-5.2405,-5.253,-5.2535,-5.2447,-5.2505,-5.2514,-5.2545,-5.259,-5.2595,-5.2555,-5.2552,-5.263,-5.2638,-5.2647,-5.274,-5.267,-5.2675,-5.2678,-5.2887,-5.289,-5.2893,0,0,0,0,0,0,-5.2387,-5.2402,-5.2527,-5.247,-5.2485,-5.251,-5.2545,-5.2548,-5.2569,-5.2598,-5.2602,-5.2573,-5.2628,-5.264,-5.2707,-5.2743,-5.2678,-5.2683,-5.2884,-5.2888,-5.2892,-5.2928,0,0,0,0,0,0,-5.2382,-5.2401,-5.2431,-5.2471,-5.2488,-5.2586,-5.2547,-5.2551,-5.2579,-5.2576,-5.2616,-5.262,-5.2627,-5.2699,-5.2712,-5.2749,-5.2687,-5.2881,-5.2886,-5.2891,-5.2924,-5.2932,-5.294,0,0,0,0,0,-5.2376,-5.2437,-5.2433,-5.2448,-5.2527,-5.2588,-5.2598,-5.2605,-5.2582,-5.2612,-5.2631,-5.2619,-5.2738,-5.2706,-5.2721,-5.276,-5.2879,-5.2885,-5.289,-5.292,-5.2931,-5.294,0,0,0,0,0,0,-5.24,-5.2443,-5.2438,-5.2514,-5.2547,-5.2585,-5.2622,-5.2617,-5.2657,-5.2652,-5.266,-5.2669,-5.2737,-5.2756,-5.272,-5.2838,-5.2805,-5.2814,-5.2822,-5.2833,-5.2841,-5.2834,-5.2691,0,0,0,0,0,-5.2414,-5.2461,-5.2496,-5.2559,-5.2577,-5.2597,-5.2624,-5.2627,-5.2662,-5.2676,-5.2699,-5.2733,-5.2778,-5.2807,-5.285,-5.2928,-5.2935,-5.2962,-5.297,-5.2977,-5.2983,-5.3025,-5.3037,-5.2912,-5.2912,-5.2912,0,0,-5.2443,-5.2473,-5.2501,-5.2565,-5.2591,-5.2638,-5.2609,-5.266,-5.2695,-5.2683,-5.2748,-5.2767,-5.2805,-5.2877,-5.2911,-5.2895,-5.302,-5.2984,-5.2989,-5.2992,-5.3032,-5.3044,-5.3054,-5.2916,-5.2915,-5.2914,0,0,-5.252,-5.2548,-5.2604,-5.2632,-5.2673,-5.2686,-5.27,-5.2739,-5.2751,-5.2816,-5.2808,-5.285,-5.2928,-5.2955,-5.2979,-5.3069,-5.3059,-5.3083,-5.3125,-5.3166,-5.3175,-5.3184,-5.3214,-5.3226,-5.309,-5.3091,-5.3091,0,-5.2551,-5.2623,-5.2633,-5.2685,-5.2713,-5.2707,-5.2762,-5.2789,-5.2841,-5.286,-5.2843,-5.294,-5.2965,-5.3044,-5.3066,-5.3087,-5.3101,-5.3077,-5.3174,-5.3182,-5.3191,-5.3219,-5.3231,-5.3093,-5.3093,-5.3092,-5.3092,0,-5.2658,-5.2708,-5.2748,-5.28,-5.2833,-5.2887,-5.2904,-5.2936,-5.2938,-5.2953,-5.302,-5.3051,-5.3099,-5.3119,-5.312,-5.3198,-5.3187,-5.3172,-5.3138,-5.3205,-5.3232,-5.3243,-5.3096,-5.3096,-5.3095,-5.3094,0,0,-5.2748,-5.2807,-5.2821,-5.2845,-5.2891,-5.2929,-5.2984,-5.3033,-5.3059,-5.3097,-5.3141,-5.3208,-5.3195,-5.3222,-5.3227,-5.3263,-5.3331,-5.3243,-5.3244,-5.3256,-5.3417,-5.3426,-5.3438,-5.3326,-5.3329,-5.333,-5.3413,0,-5.2828,-5.2923,-5.2935,-5.3019,-5.3065,-5.3061,-5.3108,-5.3141,-5.3158,-5.3199,-5.3217,-5.3263,-5.3243,-5.326,-5.3295,-5.3315,-5.3363,-5.331,-5.3366,-5.3368,-5.3353,-5.3453,-5.3463,-5.3539,-5.3424,-5.3425,-5.3427,0,-5.2932,-5.2974,-5.3063,-5.3103,-5.3123,-5.3165,-5.3211,-5.3251,-5.3289,-5.3298,-5.333,-5.3331,-5.3386,-5.3354,-5.3429,-5.3393,-5.3417,-5.3431,-5.3434,-5.3437,-5.3399,-5.3456,-5.3563,-5.3574,-5.3444,-5.3443,-5.3441,0,-5.2987,-5.3065,-5.3129,-5.3149,-5.3198,-5.3228,-5.325,-5.3285,-5.3314,-5.3355,-5.3374,-5.342,-5.3445,-5.3481,-5.3494,-5.3469,-5.3568,-5.3537,-5.3576,-5.3576,-5.3594,-5.3592,-5.3704,-5.3615,-5.3615,-5.3615,-5.3615,0,-5.3072,-5.3127,-5.3154,-5.3192,-5.3253,-5.3267,-5.3326,-5.3347,-5.3379,-5.3421,-5.3422,-5.3461,-5.3477,-5.352,-5.3531,-5.3591,-5.3603,-5.3611,-5.3613,-5.3609,-5.3608,-5.3623,-5.3617,-5.3618,-5.3617,-5.3617,-5.3616,0,-5.3142,-5.3163,-5.3231,-5.3273,-5.3285,-5.3327,-5.3363,-5.34,-5.3418,-5.3471,-5.3484,-5.3511,-5.3561,-5.3579,-5.3639,-5.3646,-5.3716,-5.3714,-5.3703,-5.3702,-5.374,-5.3735,-5.3863,-5.3879,-5.3782,-5.3783,-5.3784,0,-5.3193,-5.3235,-5.3282,-5.3311,-5.3334,-5.338,-5.341,-5.3426,-5.3457,-5.3504,-5.3536,-5.3586,-5.3626,-5.3706,-5.373,-5.3776,-5.3774,-5.3816,-5.3781,-5.3776,-5.3772,-5.3768,-5.3772,-5.3821,-5.3822,-5.3823,-5.3824,0,-5.3283,-5.3291,-5.3335,-5.3382,-5.3418,-5.3456,-5.3493,-5.3517,-5.3538,-5.3573,-5.3624,-5.3656,-5.3718,-5.3767,-5.3815,-5.3836,-5.3833,-5.3835,-5.3846,-5.3841,-5.3832,-5.3836,-5.3718,-5.3831,-5.383,-5.383,-5.3829,-5.3829,-5.3343,-5.338,-5.3419,-5.3467,-5.3497,-5.3532,-5.3569,-5.3592,-5.3635,-5.3687,-5.3695,-5.3749,-5.3787,-5.3851,-5.3875,-5.3918,-5.3906,-5.3923,-5.3927,-5.393,-5.3932,-5.3828,-5.3927,-5.3927,-5.3927,-5.3927,-5.3927,0,-5.343,-5.3456,-5.3501,-5.3552,-5.3591,-5.3587,-5.3628,-5.366,-5.3708,-5.3744,-5.3785,-5.3844,-5.3892,-5.3921,-5.3969,-5.3998,-5.3997,-5.401,-5.4006,-5.4011,-5.394,-5.3925,-5.4009,-5.4009,-5.4009,-5.4009,-5.4009,-5.4009,-5.348,-5.3541,-5.3555,-5.3632,-5.3657,-5.3711,-5.3735,-5.3767,-5.3795,-5.3861,-5.3902,-5.3921,-5.3954,-5.4005,-5.4049,-5.4056,-5.4073,-5.4086,-5.4092,-5.4024,-5.4016,-5.4008,-5.3993,-5.409,-5.409,-5.4158,-5.4159,-5.416]},{"header":{"parameterUnit":"m.s-1","parameterCategory":1,"la1":30.2991,"la2":30.254,"lo1":-89.0895,"lo2":-89.0444,"dy":0.0017,"dx":0.0017,"nx":28,"ny":28,"refTime":"2025-04-04T03:00:00:Z","depth":0,"parameterNumber":3,"parameterNumberName":"V-component_of_WINDS"},"data":[0,0,0,0,0,0,0,0,0,0,0,0,0,0,0,0,0,0,0,0,0,0,0,0,0,0,0,0,0,0,0,0,0,0,0,0,0,0,0,0,0,0,0,0,0,0,0,0,0,0,0,0,0,0,0,0,0,0,3.0902,3.0903,0,3.0993,3.0994,3.0995,3.1026,3.1025,3.1025,3.1025,3.1118,3.1121,3.1124,0,0,0,0,0,0,0,0,0,0,0,0,0,3.0755,3.0757,3.0902,3.0903,3.0904,3.0993,3.0994,3.0996,3.1026,3.1025,3.1025,3.1024,3.1117,3.112,3.1124,0,0,0,0,0,0,0,0,0,0,0,0,0,3.083,3.0758,3.0901,3.093,3.0933,3.0993,3.0994,3.0996,3.1026,3.1025,3.1025,3.1024,3.1116,3.112,3.1124,3.1162,0,0,3.1137,3.1139,0,0,0,0,0,0,0,0,3.0825,3.0835,3.0924,3.0928,3.0932,3.0998,3.0977,3.1052,3.1026,3.0991,3.1025,3.1024,3.1078,3.1086,3.1104,3.1167,3.1171,3.1138,3.114,3.1142,3.1143,0,0,0,0,0,0,0,3.082,3.0831,3.0938,3.0926,3.093,3.0939,3.0949,3.0991,3.1037,3.0994,3.0996,3.1007,3.108,3.11,3.1107,3.1172,3.1138,3.1141,3.1144,3.1146,3.1274,3.1275,0,0,0,0,0,0,3.081,3.0827,3.0935,3.0941,3.0876,3.0942,3.0953,3.0977,3.1036,3.1045,3.1007,3.1008,3.1093,3.1102,3.111,3.1161,3.1142,3.1146,3.1149,3.1274,3.1275,3.1276,0,0,0,0,0,0,3.0807,3.082,3.0931,3.0885,3.0899,3.0945,3.0972,3.0979,3.0999,3.1046,3.1055,3.1019,3.1093,3.1104,3.115,3.1164,3.1148,3.1152,3.1273,3.1274,3.1275,3.1261,0,0,0,0,0,0,3.0803,3.0818,3.0832,3.0885,3.0902,3.0969,3.0973,3.0981,3.1006,3.1008,3.1059,3.1067,3.1093,3.1144,3.1154,3.117,3.1155,3.1272,3.1273,3.1275,3.1261,3.1262,3.1263,0,0,0,0,0,3.0797,3.0824,3.0833,3.0846,3.092,3.097,3.098,3.1009,3.1007,3.1023,3.1054,3.1066,3.1161,3.1148,3.116,3.1178,3.1271,3.1273,3.1275,3.126,3.1262,3.1263,0,0,0,0,0,0,3.0771,3.0831,3.0842,3.0886,3.0923,3.0975,3.0995,3.1009,3.1047,3.1047,3.1081,3.1093,3.1137,3.1162,3.1146,3.122,3.1217,3.1221,3.1202,3.1203,3.1205,3.1198,3.1159,0,0,0,0,0,3.0771,3.0805,3.0856,3.089,3.0908,3.0949,3.0971,3.0991,3.103,3.1046,3.108,3.1118,3.1157,3.1181,3.1219,3.1265,3.1278,3.1283,3.1284,3.1285,3.1288,3.1317,3.1321,3.1282,3.1282,3.1282,0,0,3.077,3.0807,3.0826,3.0886,3.0917,3.0953,3.0961,3.0998,3.1026,3.1051,3.1097,3.1124,3.1169,3.1216,3.1238,3.1238,3.1302,3.1287,3.1287,3.1291,3.132,3.1323,3.1327,3.1283,3.1283,3.1283,0,0,3.0787,3.0818,3.0851,3.0882,3.0929,3.0957,3.0965,3.1016,3.1035,3.1082,3.1102,3.1136,3.1201,3.1233,3.1258,3.1291,3.1305,3.1303,3.1309,3.1337,3.134,3.1343,3.1357,3.1361,3.1306,3.1306,3.1306,0,3.078,3.0835,3.0866,3.0904,3.093,3.0956,3.0991,3.102,3.1077,3.1095,3.1094,3.118,3.1211,3.1267,3.1276,3.1294,3.1306,3.1297,3.1337,3.134,3.1344,3.1357,3.1362,3.1306,3.1306,3.1306,3.1306,0,3.0825,3.0863,3.0885,3.094,3.097,3.1005,3.1044,3.107,3.1088,3.1115,3.1165,3.1204,3.1252,3.1267,3.1284,3.1326,3.1325,3.133,3.1328,3.1346,3.136,3.1365,3.1305,3.1305,3.1305,3.1306,0,0,3.0826,3.0901,3.0909,3.0936,3.0991,3.1022,3.106,3.1108,3.1131,3.117,3.1204,3.1261,3.1267,3.1295,3.1316,3.1341,3.1368,3.1343,3.1345,3.1348,3.142,3.1417,3.1422,3.1377,3.1378,3.1379,3.1417,0,3.0851,3.0921,3.0952,3.1008,3.1045,3.1072,3.1106,3.1144,3.1172,3.1208,3.1239,3.1279,3.1283,3.1301,3.1326,3.1359,3.1383,3.1357,3.1411,3.1412,3.14,3.1429,3.1425,3.1459,3.1422,3.1423,3.1424,0,3.089,3.0931,3.0991,3.1045,3.1062,3.1092,3.114,3.1174,3.1219,3.1238,3.1271,3.1292,3.1335,3.133,3.1391,3.1373,3.1397,3.1417,3.1419,3.1426,3.1419,3.1438,3.147,3.1475,3.1432,3.1431,3.1431,0,3.0887,3.0957,3.1003,3.1025,3.1089,3.111,3.1138,3.1182,3.121,3.1253,3.1272,3.1318,3.1343,3.1379,3.1413,3.1406,3.1472,3.1469,3.149,3.1489,3.1503,3.1502,3.154,3.1516,3.1516,3.1516,3.1516,0,3.0912,3.0948,3.1003,3.1031,3.1074,3.111,3.1151,3.1181,3.1221,3.1257,3.1282,3.1315,3.1357,3.1396,3.1423,3.1471,3.1481,3.1499,3.1506,3.1497,3.1495,3.1514,3.1513,3.1517,3.1517,3.1517,3.1516,0,3.0916,3.0954,3.1006,3.1063,3.1079,3.1108,3.1157,3.1187,3.1217,3.1262,3.1274,3.1321,3.1369,3.1406,3.1467,3.1486,3.1537,3.1544,3.1522,3.1526,3.1545,3.1543,3.1598,3.1608,3.1576,3.1576,3.1576,0,3.093,3.0959,3.102,3.1047,3.1074,3.1116,3.1145,3.1183,3.1213,3.1269,3.1292,3.1342,3.1383,3.1458,3.1498,3.1546,3.1555,3.1571,3.1562,3.1554,3.1558,3.1556,3.1561,3.1572,3.1572,3.1572,3.1572,0,3.0952,3.097,3.1011,3.1061,3.1096,3.1136,3.1177,3.1197,3.1243,3.1276,3.1325,3.1358,3.1422,3.1472,3.1524,3.1554,3.1572,3.1575,3.1583,3.1575,3.1562,3.1572,3.1526,3.1574,3.1574,3.1573,3.1573,3.1573,3.0962,3.099,3.1039,3.1086,3.1121,3.116,3.1191,3.1226,3.1269,3.1324,3.1345,3.1396,3.1444,3.1517,3.1547,3.1589,3.159,3.1601,3.1604,3.1606,3.1606,3.1555,3.1598,3.1598,3.1598,3.1598,3.1599,0,3.0987,3.102,3.1063,3.1121,3.1158,3.1173,3.122,3.125,3.1296,3.1339,3.1381,3.1439,3.1489,3.1534,3.1586,3.1611,3.162,3.1623,3.1622,3.1629,3.1601,3.159,3.1615,3.1615,3.1615,3.1615,3.1615,3.1615,3.1004,3.1053,3.1078,3.1147,3.118,3.1232,3.1258,3.1295,3.133,3.1395,3.1436,3.1466,3.1511,3.1567,3.1614,3.1626,3.1644,3.1645,3.166,3.1633,3.1631,3.1629,3.1619,3.1649,3.1649,3.1685,3.1685,3.1686]}]]